SCP
0 0 0 0 0 0 0 0 0 0 0 0 0 0 0 0 0 0 0 0 0 0 0 0 0 0 0 0 0 0 0 0 0 0 0 0 0 0 0 0 0 0 0
0 0 0 0 0 0 0 0 0 0 0 0 0 0 0 0 0 0 0 0 0 0 0 0 0 0 0 0 0 0 0 0 0 0 0 0 0 0 0 0 0 0 0
0 0 0 0 0 0 0 0 0 0 0 0 0 0 0 0 0 0 0 0 0 0 0 0 0 0 0 0 0 0 0 0 0 0 0 0 0 0 0 0 0 0 0
0 0 0 0 0 0 0 0 0 0 0 0 0 0 0 0 0 0 0 0 0 0 0 0 0 0 0 0 0 0 0 0 0 0 0 0 0 0 0 0 0 0 0
0 0 0 0 0 0 0 0 0 0 0 0 0 0 0 0 0 0 0 0 0 0 0 0 0 0 0 0 0 0 0 0 0 0 0 0 0 0 0 0 0 0 0
0 0 0 0 0 0 0 0 0 0 0 0 0 0 0 0 0 0 0 0 0 0 0 0 0 0 0 0 0 0 0 0 0 0 0 0 0 0 0 0 0 0 0
0 0 0 0 0 0 0 0 0 0 0 0 0 0 0 0 0 0 0 0 0 0 0 0 0 0 0 0 0 0 0 0 0 0 0 0 0 0 0 0 0 0 0
0 0 0 0 0 0 0 0 0 0 0 0 0 0 0 0 0 0 0 0 0 0 0 0 0 0 0 0 0 0 0 0 0 0 0 0 0 0 0 0 0 0 0
0 0 0 0 0 0 0 0 0 0 0 0 0 0 0 0 0 0 0 0 0 0 0 0 0 0 0 0 0 0 0 0 0 0 0 0 0 0 0 0 0 0 0
0 0 0 0 0 0 0 0 0 0 0 0 0 0 0 0 0 0 0 0 0 0 0 0 0 0 0 0 0 0 0 0 0 0 0 0 0 0 0 0 0 0 0
0 0 0 0 0 0 0 0 0 0 0 0 0 0 0 0 0 0 0 0 0 0 0 0 0 0 0 0 0 0 0 0 0 0 0 0 0 0 0 0 0 0 0
0 0 0 0 0 0 0 0 0 0 0 0 0 0 0 0 0 0 0 0 0 0 0 0 0 0 0 0 0 0 0 0 0 0 0 0 0 0 0 0 0 0 0
0 0 0 0 0 0 0 0 0 0 0 0 0 0 0 0 0 0 0 0 0 0 0 0 0 0 0 0 0 0 0 0 0 0 0 0 0 0 0 0 0 0 0
0 0 0 0 0 0 0 0 0 0 0 0 0 0 0 0 0 0 0 0 0 0 0 0 0 0 0 0 0 0 0 0 0 0 0 0 0 0 0 0 0 0 0
0 0 0 0 0 0 0 0 0 0 0 0 0 0 0 0 0 0 0 0 0 0 0 0 0 0 0 0 0 0 0 0 0 0 0 0 0 0 0 0 0 0 0
0 0 0 0 0 0 0 0 0 0 0 0 0 0 0 0 0 0 0 0 0 0 0 0 0 0 0 0 0 0 0 0 0 0 0 0 0 0 0 0 0 0 0
0 0 0 0 0 0 0 0 0 0 0 0 0 0 0 0 0 0 0 0 0 0 0 0 0 0 0 0 0 0 0 0 0 0 0 0 0 0 0 0 0 0 0
0 0 0 0 0 0 0 0 0 0 0 0 0 0 0 0 0 0 0 0 0 0 0 0 0 0 0 0 0 0 0 0 0 0 0 0 0 0 0 0 0 0 0
0 0 0 0 0 0 0 0 0 0 0 0 0 0 0 0 0 0 0 0 0 0 0 0 0 0 0 0 0 0 0 0 0 0 0 0 0 0 0 0 0 0 0
0 0 0 0 0 0 0 0 0 0 0 0 0 0 0 0 0 0 0 0 0 0 0 0 0 0 0 0 0 0 0 0 0 0 0 0 0 0 0 0 0 0 0
0 0 0 0 0 0 0 0 0 0 0 0 0 0 0 0 0 0 0 0 0 0 0 0 0 0 0 0 0 0 0 0 0 0 0 0 0 0 0 0 0 0 0
0 0 0 0 0 0 0 0 0 0 0 0 0 0 0 0 0 0 0 0 0 0 0 0 0 0 0 0 0 0 0 0 0 0 0 0 0 0 0 0 0 0 0
0 0 0 0 0 0 0 0 0 0 0 0 0 0 0 0 0 0 0 0 0 0 0 0 0 0 0 0 0 0 0 0 0 0 0 0 0 0 0 0 0 0 0
0 0 0 0 0 0 0 0 0 0 0 0 0 0 0 0 0 0 0 0 0 0 0 0 0 0 0 0 0 0 0 0 0 0 0 0 0 0 0 0 0 0 0
0 0 0 0 0 0 0 0 0 0 -0 0 0 0 0 0 0 0 0 0 0 0 0 0 0 0 0 0 0 0 0 0 0 0 0 0 0 0 0 0 0 0 0
0 0 0 0 0 0 0 0 0 0 0 0 0 0 0 0 0 0 0 0 0 0 0 0 0 0 0 0 0 0 0 0 0 0 0 0 0 0 0 0 0 0 0
Wind_Speed
6 5 5 5 5 4 5 4 4 3 3 2 2 2 1 0 1 1 1 2 3 3 3 3 2 2 2 2 2 2 2 2 1 3 3 3 3 2 1 1 1 1 1
4 4 5 5 5 5 5 5 4 3 3 3 3 2 2 1 1 1 1 2 3 3 3 3 2 2 2 2 1 2 2 1 1 2 2 2 3 3 2 1 1 1 1
9 7 6 6 6 5 6 5 5 4 3 3 2 2 2 2 2 1 0 1 2 2 2 3 2 2 2 2 1 2 3 2 0 1 3 3 1 2 3 2 1 0 1
8 8 8 7 7 7 6 6 5 5 4 4 4 4 3 2 2 2 1 1 1 1 2 2 2 2 2 2 2 2 2 3 1 0 0 2 3 2 1 2 2 1 0
9 9 9 9 7 7 6 6 5 5 4 4 4 4 3 2 1 1 1 1 1 1 2 2 2 2 2 2 2 1 2 2 2 2 1 1 1 2 2 1 2 2 1
8 8 7 6 6 6 5 5 6 5 4 5 5 5 4 3 2 2 2 1 1 1 2 2 2 2 2 2 2 2 2 2 2 2 2 2 2 2 2 2 2 1 2
8 8 7 7 6 7 6 6 6 5 5 5 5 5 5 5 5 4 3 2 1 1 3 2 2 2 2 2 2 2 2 2 2 3 2 2 2 2 3 2 1 1 2
7 8 9 8 7 7 8 7 7 6 6 5 5 5 5 4 3 4 3 3 3 3 3 3 3 3 3 2 2 1 2 2 2 3 3 2 2 2 3 3 3 1 1
8 8 8 8 8 7 8 8 8 6 6 6 5 5 5 4 4 4 3 3 3 2 3 3 3 3 3 3 2 2 2 1 2 2 2 2 1 1 2 2 3 4 2
5 6 7 8 7 7 6 7 7 7 6 6 6 5 5 5 4 4 3 3 3 3 2 2 3 3 3 3 2 1 2 2 1 1 1 1 1 1 1 2 2 3 4
5 5 4 5 5 4 4 5 6 6 6 6 6 5 4 4 4 4 4 4 3 3 3 3 3 3 3 2 2 2 2 2 2 1 1 2 1 1 1 1 1 2 2
5 4 4 3 3 3 3 3 5 5 6 6 5 5 5 4 4 4 4 4 3 3 3 2 2 2 2 2 3 3 2 2 3 2 2 2 1 1 1 2 2 2 2
3 3 3 3 3 3 3 3 3 4 5 5 5 5 4 5 5 5 5 4 3 3 3 2 2 2 3 3 3 3 3 3 3 3 3 3 2 2 2 2 2 2 2
4 3 3 3 3 3 2 2 2 3 3 3 4 4 4 5 5 5 4 4 4 4 3 3 3 3 3 3 3 3 3 2 2 3 3 3 4 4 4 3 3 3 2
2 3 3 3 3 2 2 2 2 2 3 3 3 4 4 3 3 3 3 4 4 4 4 4 3 2 2 2 3 3 3 3 2 2 3 3 4 5 4 3 2 3 3
2 2 3 3 3 3 3 2 2 2 3 4 4 3 3 3 3 3 3 3 3 3 3 4 4 3 2 2 4 3 3 2 3 3 3 3 3 4 5 5 4 5 5
2 2 2 3 4 4 3 4 3 2 3 4 4 3 3 3 4 3 3 3 3 3 3 4 4 3 4 3 3 3 3 3 3 3 2 2 2 3 3 4 4 5 6
2 1 2 2 2 2 2 2 2 2 3 4 4 4 3 3 3 3 3 4 3 3 3 4 4 3 4 4 3 3 2 2 2 3 3 3 3 3 3 2 2 3 4
2 2 2 2 1 1 2 1 1 1 2 3 4 4 4 3 3 3 4 3 3 3 3 3 3 4 4 4 4 3 2 2 3 3 3 3 3 4 4 3 3 3 4
1 1 1 1 1 1 1 1 1 1 3 4 4 3 4 4 4 4 3 2 2 3 3 2 3 3 4 4 4 4 2 2 2 2 3 4 4 3 4 4 4 4 4
1 2 2 1 0 0 2 1 1 3 3 2 2 2 3 4 4 3 2 1 2 2 2 2 2 2 3 3 3 3 2 3 2 2 3 3 4 4 4 4 4 6 4
1 2 2 0 0 1 2 1 2 3 1 1 1 1 2 2 2 2 2 2 2 1 2 1 1 1 2 2 2 2 2 2 2 3 3 3 4 4 4 4 4 4 2
1 1 2 1 1 0 1 1 2 1 0 1 1 1 1 1 1 2 2 1 1 1 1 1 1 2 2 2 2 2 2 2 2 3 4 3 3 3 3 3 3 2 2
1 1 2 1 1 1 1 1 1 1 1 1 1 1 1 0 0 0 1 1 1 1 1 1 2 2 1 1 1 1 1 2 2 2 3 2 2 2 2 2 2 2 2
1 1 2 1 1 1 1 1 1 1 1 1 1 1 1 1 0 0 0 1 2 2 3 3 3 2 2 3 3 2 2 2 3 1 1 1 1 1 1 1 1 1 1
1 1 1 0 1 1 1 2 1 0 1 1 1 1 1 1 1 0 2 3 2 3 2 1 1 2 3 3 3 2 2 2 1 1 0 1 2 2 2 2 2 1 1
Wind_Direction
202 180 170 162 150 142 142 141 137 145 137 127 129 124 131 145 69 86 105 115 112 113 117 117 109 106 108 116 114 105 83 60 69 68 33 11 21 35 32 61 89 96 129
188 180 168 160 160 159 155 149 146 145 147 157 162 157 155 155 131 81 79 100 111 119 124 129 132 128 114 105 113 117 117 91 85 108 88 22 357 353 4 18 80 86 106
188 183 175 173 167 165 167 162 159 154 155 149 132 103 69 47 46 45 62 102 127 128 133 138 135 140 140 154 161 156 144 160 280 128 138 137 208 305 335 350 16 49 100
187 179 177 176 174 177 171 163 163 162 164 154 144 144 144 163 205 198 182 149 139 143 146 152 149 160 168 174 183 157 158 152 185 290 164 163 158 154 308 330 336 338 199
184 182 183 181 176 172 166 166 161 161 163 158 156 156 154 177 189 159 147 163 191 182 169 169 168 179 190 193 186 165 172 167 170 179 173 132 100 128 147 242 310 330 297
185 183 183 172 172 170 165 164 162 170 170 161 161 163 165 165 155 158 175 209 242 239 227 196 188 197 203 201 199 193 187 187 179 183 176 167 164 174 157 188 239 262 286
178 176 176 175 176 175 174 173 170 176 178 171 174 177 176 172 178 182 190 199 214 239 240 222 211 209 206 203 195 191 196 195 193 197 199 189 188 168 159 159 195 238 283
176 179 184 180 180 183 182 179 178 180 181 183 188 184 179 180 190 192 190 200 211 224 228 222 217 213 208 203 198 204 212 197 205 209 197 189 198 178 170 166 157 157 301
179 179 181 182 185 187 189 185 183 185 189 189 188 183 187 188 192 198 198 205 220 232 225 222 219 220 210 198 184 200 212 188 207 216 208 190 197 189 192 177 165 159 187
178 182 185 186 188 190 189 186 186 192 193 190 191 189 195 199 198 191 196 205 217 228 222 221 219 219 215 202 177 188 208 178 192 189 176 180 187 188 190 183 177 167 168
172 179 184 189 186 182 182 188 194 194 194 194 196 191 196 199 194 198 206 207 212 216 216 217 217 212 209 204 185 199 199 195 201 187 180 211 185 169 200 179 163 164 155
169 171 170 162 158 164 178 195 204 201 200 197 197 197 198 195 197 204 210 207 206 212 210 198 198 208 207 204 193 206 204 202 207 213 195 213 195 206 217 194 186 186 178
149 143 137 143 159 167 172 186 201 203 210 202 196 200 199 196 203 207 208 206 205 207 199 183 188 204 205 204 208 203 203 212 218 215 205 214 193 214 224 215 201 195 182
149 148 156 164 165 165 172 191 216 205 195 190 190 202 208 203 209 213 210 207 201 194 196 197 197 202 204 201 210 202 202 211 226 227 219 215 203 209 210 213 211 188 168
152 169 178 180 173 169 178 189 209 210 184 176 186 207 213 212 209 213 213 212 204 201 199 196 200 202 198 199 197 202 203 207 223 238 239 232 220 217 204 201 198 183 174
187 192 185 177 181 190 193 194 205 210 182 177 192 204 207 212 211 215 210 209 213 213 201 199 202 208 220 210 197 193 206 213 215 229 240 244 235 237 225 222 201 183 183
192 196 196 198 201 200 194 199 208 206 184 185 197 205 207 216 220 218 208 214 219 210 207 209 202 211 226 223 211 200 198 208 221 225 228 247 247 226 228 237 233 225 219
171 196 213 221 214 202 199 195 187 190 189 194 204 207 202 214 226 217 216 221 225 219 214 216 212 217 236 230 223 209 198 207 228 230 225 226 239 223 206 213 229 244 240
177 197 208 203 194 198 200 174 183 195 197 207 214 214 203 204 212 219 227 225 218 232 230 217 209 213 238 238 229 207 199 216 246 253 240 228 234 232 202 197 219 251 266
154 154 158 98 119 212 156 147 197 202 221 223 225 222 210 207 213 221 225 233 220 230 235 229 216 214 230 245 235 203 188 214 246 268 269 245 240 240 209 202 207 233 253
158 135 103 95 165 158 130 155 214 230 235 226 220 221 217 216 214 218 219 218 226 233 237 229 238 235 243 257 245 205 192 207 230 254 270 266 254 249 237 220 213 228 229
115 118 114 105 263 125 128 162 242 256 251 205 210 234 231 225 213 200 214 208 197 210 231 216 266 279 271 259 251 223 205 204 210 239 256 265 269 256 248 237 236 236 218
127 116 120 99 26 68 142 185 263 269 157 144 230 259 258 237 196 186 192 193 191 195 216 202 227 272 287 288 287 238 211 221 233 248 261 267 274 274 259 256 256 239 203
105 106 108 102 335 323 298 243 257 192 137 167 222 252 227 268 354 185 181 172 193 209 219 214 226 250 270 264 262 264 257 255 260 274 292 297 290 266 262 271 259 229 207
89 125 137 154 260 305 317 299 257 150 162 182 209 237 217 204 151 8 294 218 220 214 212 216 211 210 237 243 235 219 228 239 238 244 303 324 317 300 279 277 270 250 237
64 74 80 102 298 318 314 312 312 143 175 186 204 211 202 197 173 143 348 346 339 322 306 272 239 250 255 262 261 248 254 265 249 132 221 259 258 259 259 254 260 241 232